STARLINK-2475 (48133 NORAD) Tracking and Keplerian Element Data

This shows tracking and keplerian element data for the satellite.

Feedback or suggestion? Click here.




ElementValue
Catalog48133
NameSTARLINK-2475
Epoch Orbit179
Epoch Day136.75001157
Epoch Year2021
RAAN146.7771
Inclination53.0466
Eccentricity0.0001362
Argument of Perigee62.7285
Mean Anonmoly84.5732
Mean Motion15.54339483
Decay Rate-0.01088753
L11 48133U 21027AT 21136.75001157 -.01088753 00000-0 -18025-1 0 9991
L22 48133 53.0466 146.7771 0001362 62.7285 84.5732 15.54339483 1791

Live tracking and technical data element details for STARLINK-2475 (NORAD 48133). STARLINK-2475 can be tracked NOW for your location showing map with azimuth and elevation plus other details from your city location.

Track the satellite on the map from your city or location and see movement details for azimuth, elevation, latitude, longitude, range, height, and movement on the map or in text.







IsCatalogInMostPopularTable: catalog: 48133, numindb: 16
Update: records affected: 1



GetName: 48133 STARLINK-2475

Hit Count: updated at: Mon, 17 May 2021 16:28:02 GMT